QPF
0.01 0.00 0.00 0.00 0.00 0.00 0.00 0.00 0.00 0.00 0.00 0.01 0.01 0.01 0.00 0.01 0.01 0.01 0.01 0.02 0.03 0.05 0.07 0.06 0.05 0.04 0.03 0.03 0.02 0.02 0.02 0.02 0.03 0.02 0.03 0.04 0.12 0.15 0.06 0.06 0.05 0.06 0.07
0.01 0.01 0.00 0.00 0.00 0.00 0.00 0.00 0.00 0.00 0.01 0.01 0.01 0.01 0.00 0.00 0.01 0.01 0.01 0.01 0.03 0.04 0.06 0.07 0.04 0.03 0.02 0.03 0.02 0.03 0.02 0.02 0.04 0.03 0.04 0.05 0.16 0.22 0.17 0.12 0.07 0.06 0.07
0.02 0.01 0.00 0.00 0.00 0.00 0.00 0.00 0.00 0.00 0.00 0.01 0.01 0.01 0.00 0.00 0.00 0.00 0.01 0.00 0.01 0.03 0.04 0.04 0.03 0.02 0.03 0.03 0.02 0.03 0.03 0.04 0.05 0.05 0.04 0.04 0.13 0.22 0.24 0.18 0.11 0.08 0.08
0.02 0.01 0.00 0.01 0.00 0.00 0.00 0.00 0.00 0.00 0.00 0.00 0.01 0.01 0.01 0.01 0.01 0.01 0.01 0.01 0.01 0.01 0.02 0.01 0.02 0.02 0.03 0.03 0.02 0.02 0.03 0.05 0.06 0.07 0.05 0.03 0.06 0.13 0.16 0.13 0.10 0.09 0.07
0.01 0.01 0.00 0.00 0.00 0.00 0.00 0.00 0.00 0.00 0.00 0.00 0.00 0.01 0.01 0.01 0.01 0.01 0.01 0.01 0.01 0.01 0.01 0.01 0.00 0.01 0.02 0.04 0.03 0.03 0.04 0.06 0.08 0.09 0.08 0.05 0.06 0.11 0.10 0.07 0.07 0.08 0.08
0.01 0.00 0.00 0.00 0.00 0.00 0.00 0.00 0.00 0.00 0.00 0.00 0.00 0.01 0.01 0.01 0.01 0.01 0.01 0.01 0.01 0.02 0.02 0.01 0.00 0.00 0.01 0.02 0.04 0.05 0.05 0.07 0.09 0.10 0.09 0.08 0.06 0.07 0.10 0.09 0.09 0.10 0.09
0.00 0.00 0.00 0.00 0.00 0.00 0.00 0.00 0.00 0.00 0.00 0.00 0.00 0.00 0.00 0.00 0.01 0.01 0.01 0.01 0.02 0.02 0.01 0.01 0.00 0.00 0.00 0.00 0.01 0.04 0.04 0.05 0.07 0.08 0.09 0.08 0.09 0.10 0.12 0.11 0.12 0.15 0.15
0.00 0.00 0.00 0.00 0.00 0.00 0.00 0.00 0.00 0.00 0.00 0.00 0.00 0.00 0.00 0.00 0.00 0.00 0.01 0.02 0.03 0.02 0.02 0.01 0.00 0.00 0.00 0.00 0.01 0.06 0.07 0.05 0.04 0.06 0.09 0.10 0.14 0.14 0.12 0.11 0.12 0.17 0.26
0.00 0.00 0.00 0.00 0.00 0.00 0.00 0.00 0.00 0.00 0.00 0.00 0.00 0.00 0.00 0.00 0.00 0.00 0.01 0.02 0.01 0.01 0.01 0.00 0.00 0.00 0.00 0.00 0.00 0.03 0.08 0.07 0.05 0.05 0.08 0.08 0.09 0.10 0.10 0.09 0.09 0.08 0.11
0.00 0.00 0.00 0.00 0.00 0.00 0.00 0.00 0.00 0.00 0.00 0.00 0.00 0.00 0.00 0.00 0.00 0.01 0.01 0.02 0.01 0.01 0.01 0.01 0.00 0.01 0.00 0.00 0.00 0.01 0.03 0.04 0.04 0.04 0.06 0.06 0.06 0.07 0.09 0.11 0.09 0.06 0.05
0.00 0.00 0.00 0.00 0.00 0.00 0.00 0.00 0.00 0.00 0.00 0.00 0.00 0.00 0.00 0.00 0.00 0.00 0.01 0.01 0.01 0.01 0.01 0.01 0.01 0.01 0.00 0.00 0.00 0.00 0.00 0.01 0.01 0.02 0.04 0.04 0.04 0.04 0.05 0.08 0.09 0.08 0.06
0.00 0.00 0.00 0.00 0.00 0.00 0.00 0.00 0.00 0.00 0.00 0.00 0.00 0.00 0.00 0.00 0.00 0.00 0.00 0.00 0.00 0.01 0.01 0.01 0.01 0.01 0.00 0.00 0.01 0.00 0.00 0.00 0.01 0.01 0.01 0.02 0.02 0.03 0.04 0.05 0.06 0.07 0.07
0.00 0.00 0.00 0.00 0.00 0.00 0.00 0.00 0.00 0.00 0.00 0.00 0.00 0.00 0.00 0.00 0.00 0.00 0.00 0.00 0.00 0.00 0.00 0.00 0.00 0.01 0.01 0.01 0.01 0.01 0.00 0.00 0.00 0.00 0.00 0.01 0.01 0.01 0.02 0.03 0.04 0.05 0.06
0.00 0.00 0.00 0.00 0.00 0.00 0.00 0.00 0.00 0.00 0.00 0.00 0.00 0.00 0.00 0.00 0.00 0.00 0.00 0.00 0.00 0.01 0.00 0.00 0.00 0.00 0.01 0.02 0.02 0.02 0.01 0.00 0.00 0.00 0.00 0.00 0.01 0.01 0.01 0.02 0.03 0.03 0.04
0.00 0.00 0.00 0.00 0.00 0.00 0.00 0.00 0.00 0.00 0.00 0.00 0.00 0.00 0.00 0.00 0.00 0.00 0.00 0.00 0.00 0.00 0.00 0.00 0.00 0.00 0.01 0.03 0.05 0.05 0.04 0.01 0.01 0.01 0.01 0.01 0.01 0.01 0.01 0.01 0.01 0.02 0.03
0.00 0.00 0.00 0.00 0.00 0.00 0.00 0.00 0.00 0.00 0.00 0.00 0.00 0.00 0.00 0.00 0.00 0.00 0.00 0.00 0.00 0.00 0.00 0.00 0.00 0.01 0.00 0.02 0.06 0.10 0.10 0.06 0.03 0.01 0.01 0.02 0.02 0.02 0.01 0.01 0.02 0.02 0.02
0.00 0.00 0.01 0.01 0.01 0.00 0.00 0.00 0.00 0.00 0.00 0.00 0.00 0.00 0.00 0.00 0.00 0.00 0.00 0.00 0.00 0.00 0.00 0.00 0.00 0.01 0.00 0.00 0.02 0.07 0.12 0.12 0.07 0.03 0.02 0.02 0.02 0.02 0.01 0.01 0.02 0.02 0.02
0.00 0.01 0.01 0.01 0.01 0.01 0.01 0.01 0.01 0.00 0.00 0.00 0.00 0.00 0.00 0.00 0.00 0.00 0.00 0.00 0.00 0.00 0.00 0.00 0.00 0.01 0.01 0.00 0.00 0.01 0.04 0.07 0.05 0.03 0.02 0.02 0.02 0.02 0.01 0.01 0.01 0.03 0.03
0.01 0.01 0.02 0.02 0.02 0.02 0.01 0.01 0.01 0.01 0.00 0.00 0.00 0.00 0.00 0.00 0.00 0.00 0.00 0.00 0.00 0.00 0.00 0.00 0.00 0.01 0.01 0.00 0.00 0.00 0.01 0.01 0.02 0.02 0.01 0.01 0.01 0.01 0.00 0.00 0.01 0.01 0.02
0.00 0.00 0.01 0.02 0.03 0.03 0.03 0.02 0.01 0.01 0.01 0.00 0.00 0.00 0.00 0.00 0.00 0.00 0.00 0.00 0.00 0.00 0.00 0.00 0.00 0.00 0.00 0.00 0.01 0.02 0.02 0.05 0.03 0.01 0.01 0.01 0.01 0.00 0.00 0.00 0.00 0.00 0.01
0.00 0.01 0.01 0.02 0.03 0.04 0.04 0.03 0.01 0.01 0.01 0.01 0.01 0.00 0.00 0.00 0.00 0.00 0.00 0.00 0.00 0.00 0.00 0.00 0.00 0.00 0.00 0.00 0.00 0.01 0.01 0.03 0.05 0.05 0.01 0.00 0.00 0.00 0.00 0.00 0.00 0.00 0.01
0.01 0.01 0.01 0.02 0.02 0.03 0.03 0.04 0.03 0.02 0.01 0.01 0.01 0.00 0.00 0.00 0.00 0.00 0.01 0.01 0.00 0.00 0.00 0.00 0.00 0.00 0.00 0.00 0.00 0.00 0.00 0.01 0.05 0.05 0.02 0.00 0.00 0.00 0.01 0.01 0.00 0.00 0.00
0.02 0.02 0.02 0.02 0.02 0.02 0.02 0.03 0.03 0.02 0.02 0.01 0.01 0.01 0.00 0.00 0.00 0.00 0.01 0.00 0.00 0.00 0.00 0.00 0.00 0.00 0.00 0.00 0.00 0.00 0.00 0.00 0.01 0.01 0.03 0.03 0.01 0.00 0.00 0.01 0.01 0.00 0.00
0.03 0.02 0.02 0.01 0.01 0.01 0.02 0.02 0.02 0.02 0.02 0.01 0.01 0.01 0.01 0.00 0.00 0.00 0.00 0.00 0.00 0.00 0.00 0.00 0.00 0.00 0.00 0.00 0.00 0.00 0.00 0.00 0.00 0.00 0.00 0.01 0.01 0.01 0.00 0.00 0.00 0.00 0.00
0.02 0.02 0.02 0.01 0.01 0.02 0.02 0.01 0.01 0.01 0.02 0.01 0.01 0.01 0.01 0.01 0.00 0.00 0.00 0.00 0.00 0.00 0.00 0.00 0.00 0.00 0.00 0.00 0.00 0.00 0.00 0.00 0.00 0.00 0.00 0.00 0.00 0.01 0.00 0.00 0.00 0.00 0.00
0.01 0.01 0.01 0.01 0.01 0.01 0.02 0.02 0.02 0.01 0.01 0.01 0.01 0.01 0.01 0.00 0.00 0.00 0.00 0.00 0.00 0.00 0.00 0.00 0.00 0.00 0.00 0.00 0.00 0.00 0.00 0.00 0.00 0.00 0.00 0.00 0.00 0.00 0.00 0.00 0.00 0.00 0.00
MSLP
1018.78 1018.74 1018.66 1018.56 1018.46 1018.37 1018.30 1018.27 1018.28 1018.34 1018.43 1018.55 1018.69 1018.84 1018.99 1019.12 1019.21 1019.26 1019.25 1019.18 1019.07 1018.92 1018.77 1018.64 1018.55 1018.51 1018.53 1018.59 1018.68 1018.79 1018.89 1018.97 1019.05 1019.11 1019.17 1019.23 1019.30 1019.38 1019.45 1019.53 1019.58 1019.63 1019.66
1018.98 1018.94 1018.90 1018.86 1018.82 1018.81 1018.81 1018.83 1018.88 1018.96 1019.06 1019.18 1019.31 1019.44 1019.56 1019.66 1019.71 1019.71 1019.65 1019.54 1019.38 1019.21 1019.04 1018.90 1018.80 1018.76 1018.76 1018.80 1018.86 1018.92 1018.98 1019.01 1019.04 1019.07 1019.10 1019.14 1019.21 1019.28 1019.36 1019.43 1019.49 1019.53 1019.56
1019.15 1019.11 1019.09 1019.11 1019.15 1019.21 1019.29 1019.38 1019.48 1019.59 1019.71 1019.83 1019.95 1020.06 1020.15 1020.21 1020.21 1020.15 1020.03 1019.87 1019.67 1019.47 1019.29 1019.15 1019.06 1019.02 1019.02 1019.05 1019.08 1019.10 1019.10 1019.08 1019.05 1019.02 1019.01 1019.03 1019.07 1019.14 1019.21 1019.28 1019.33 1019.37 1019.41
1019.32 1019.26 1019.26 1019.32 1019.42 1019.56 1019.71 1019.86 1020.00 1020.15 1020.28 1020.40 1020.52 1020.61 1020.67 1020.68 1020.63 1020.52 1020.35 1020.14 1019.91 1019.69 1019.51 1019.37 1019.30 1019.28 1019.29 1019.32 1019.33 1019.32 1019.27 1019.19 1019.09 1019.01 1018.94 1018.91 1018.92 1018.96 1019.02 1019.08 1019.14 1019.18 1019.21
1019.51 1019.42 1019.43 1019.51 1019.65 1019.83 1020.03 1020.22 1020.40 1020.56 1020.71 1020.83 1020.94 1021.02 1021.05 1021.03 1020.95 1020.80 1020.59 1020.35 1020.09 1019.86 1019.68 1019.57 1019.52 1019.52 1019.56 1019.59 1019.59 1019.55 1019.46 1019.33 1019.18 1019.03 1018.90 1018.82 1018.79 1018.79 1018.82 1018.87 1018.91 1018.94 1018.97
1019.75 1019.64 1019.63 1019.72 1019.87 1020.07 1020.28 1020.48 1020.67 1020.83 1020.97 1021.10 1021.20 1021.28 1021.30 1021.27 1021.17 1021.00 1020.77 1020.51 1020.24 1020.01 1019.84 1019.74 1019.71 1019.74 1019.79 1019.84 1019.84 1019.79 1019.67 1019.50 1019.29 1019.09 1018.91 1018.77 1018.68 1018.64 1018.63 1018.63 1018.65 1018.66 1018.67
1020.06 1019.92 1019.90 1019.98 1020.12 1020.30 1020.49 1020.68 1020.84 1020.99 1021.12 1021.24 1021.34 1021.42 1021.45 1021.43 1021.33 1021.15 1020.92 1020.66 1020.39 1020.16 1019.99 1019.90 1019.89 1019.93 1019.99 1020.04 1020.05 1019.98 1019.85 1019.65 1019.41 1019.17 1018.94 1018.75 1018.61 1018.50 1018.43 1018.38 1018.34 1018.30 1018.28
1020.43 1020.30 1020.27 1020.32 1020.43 1020.58 1020.73 1020.86 1020.99 1021.10 1021.21 1021.32 1021.42 1021.51 1021.56 1021.55 1021.48 1021.32 1021.10 1020.84 1020.57 1020.34 1020.16 1020.06 1020.04 1020.08 1020.13 1020.17 1020.17 1020.10 1019.96 1019.75 1019.50 1019.23 1018.97 1018.74 1018.54 1018.36 1018.21 1018.08 1017.96 1017.85 1017.76
1020.87 1020.75 1020.72 1020.75 1020.83 1020.92 1021.01 1021.09 1021.16 1021.23 1021.31 1021.40 1021.51 1021.61 1021.69 1021.71 1021.66 1021.53 1021.32 1021.07 1020.80 1020.56 1020.36 1020.23 1020.18 1020.17 1020.20 1020.21 1020.19 1020.11 1019.96 1019.76 1019.51 1019.24 1018.96 1018.69 1018.43 1018.18 1017.94 1017.69 1017.46 1017.24 1017.06
1021.30 1021.22 1021.21 1021.23 1021.28 1021.33 1021.36 1021.37 1021.39 1021.41 1021.46 1021.54 1021.64 1021.76 1021.86 1021.91 1021.89 1021.79 1021.60 1021.35 1021.08 1020.81 1020.58 1020.40 1020.29 1020.22 1020.19 1020.15 1020.09 1019.98 1019.83 1019.63 1019.40 1019.14 1018.86 1018.57 1018.25 1017.92 1017.57 1017.19 1016.81 1016.45 1016.14
1021.69 1021.67 1021.68 1021.70 1021.73 1021.74 1021.72 1021.69 1021.66 1021.64 1021.66 1021.73 1021.83 1021.96 1022.07 1022.15 1022.15 1022.07 1021.89 1021.65 1021.37 1021.07 1020.79 1020.56 1020.37 1020.22 1020.10 1019.99 1019.88 1019.74 1019.58 1019.39 1019.17 1018.92 1018.65 1018.34 1017.98 1017.56 1017.08 1016.56 1016.01 1015.48 1015.02
1021.98 1022.01 1022.05 1022.09 1022.11 1022.10 1022.06 1021.99 1021.93 1021.89 1021.89 1021.95 1022.05 1022.17 1022.29 1022.38 1022.39 1022.32 1022.16 1021.92 1021.63 1021.31 1020.99 1020.69 1020.42 1020.19 1019.98 1019.78 1019.60 1019.41 1019.23 1019.04 1018.83 1018.61 1018.34 1018.02 1017.61 1017.10 1016.50 1015.81 1015.08 1014.36 1013.72
1022.14 1022.21 1022.29 1022.35 1022.37 1022.36 1022.31 1022.23 1022.16 1022.11 1022.10 1022.15 1022.24 1022.36 1022.48 1022.56 1022.58 1022.52 1022.36 1022.13 1021.84 1021.51 1021.16 1020.81 1020.48 1020.16 1019.85 1019.57 1019.31 1019.06 1018.84 1018.63 1018.43 1018.22 1017.95 1017.62 1017.16 1016.58 1015.85 1015.01 1014.10 1013.19 1012.36
1022.17 1022.28 1022.38 1022.46 1022.49 1022.49 1022.44 1022.38 1022.31 1022.27 1022.27 1022.31 1022.40 1022.50 1022.60 1022.67 1022.68 1022.62 1022.48 1022.26 1021.98 1021.66 1021.31 1020.93 1020.55 1020.16 1019.78 1019.41 1019.06 1018.75 1018.47 1018.24 1018.02 1017.80 1017.54 1017.18 1016.69 1016.04 1015.21 1014.23 1013.15 1012.06 1011.06
1022.15 1022.27 1022.37 1022.46 1022.50 1022.51 1022.49 1022.45 1022.41 1022.38 1022.39 1022.43 1022.50 1022.58 1022.66 1022.70 1022.70 1022.63 1022.50 1022.31 1022.06 1021.77 1021.43 1021.06 1020.65 1020.22 1019.78 1019.33 1018.91 1018.52 1018.19 1017.90 1017.66 1017.42 1017.14 1016.77 1016.25 1015.54 1014.63 1013.55 1012.35 1011.12 1009.97
1022.15 1022.26 1022.35 1022.43 1022.48 1022.50 1022.50 1022.49 1022.48 1022.48 1022.50 1022.54 1022.59 1022.65 1022.68 1022.69 1022.66 1022.58 1022.46 1022.30 1022.09 1021.84 1021.54 1021.20 1020.80 1020.35 1019.87 1019.36 1018.87 1018.41 1018.01 1017.66 1017.37 1017.10 1016.80 1016.41 1015.87 1015.13 1014.19 1013.05 1011.78 1010.46 1009.21
1022.30 1022.37 1022.43 1022.49 1022.54 1022.57 1022.59 1022.60 1022.62 1022.64 1022.67 1022.70 1022.72 1022.74 1022.72 1022.69 1022.62 1022.52 1022.40 1022.26 1022.09 1021.88 1021.64 1021.33 1020.96 1020.52 1020.02 1019.48 1018.93 1018.40 1017.93 1017.52 1017.18 1016.86 1016.53 1016.13 1015.58 1014.85 1013.91 1012.77 1011.49 1010.15 1008.86
1022.67 1022.69 1022.72 1022.75 1022.77 1022.80 1022.82 1022.85 1022.88 1022.91 1022.94 1022.95 1022.94 1022.90 1022.83 1022.73 1022.61 1022.48 1022.34 1022.20 1022.06 1021.90 1021.70 1021.44 1021.11 1020.69 1020.19 1019.63 1019.04 1018.46 1017.92 1017.44 1017.04 1016.68 1016.32 1015.90 1015.37 1014.67 1013.77 1012.69 1011.46 1010.17 1008.91
1023.31 1023.29 1023.27 1023.25 1023.25 1023.25 1023.26 1023.29 1023.32 1023.34 1023.35 1023.33 1023.27 1023.17 1023.03 1022.85 1022.67 1022.48 1022.30 1022.15 1022.01 1021.88 1021.71 1021.50 1021.20 1020.81 1020.32 1019.75 1019.14 1018.52 1017.93 1017.40 1016.94 1016.54 1016.15 1015.73 1015.22 1014.57 1013.75 1012.76 1011.64 1010.45 1009.29
1024.23 1024.15 1024.08 1024.02 1023.97 1023.94 1023.92 1023.92 1023.93 1023.93 1023.90 1023.83 1023.71 1023.54 1023.32 1023.06 1022.79 1022.54 1022.31 1022.11 1021.95 1021.81 1021.66 1021.47 1021.20 1020.83 1020.36 1019.81 1019.19 1018.55 1017.93 1017.36 1016.85 1016.41 1015.99 1015.57 1015.09 1014.50 1013.77 1012.91 1011.93 1010.89 1009.86
1025.34 1025.22 1025.10 1024.99 1024.89 1024.81 1024.75 1024.71 1024.67 1024.62 1024.54 1024.42 1024.24 1023.99 1023.69 1023.35 1022.99 1022.65 1022.35 1022.10 1021.89 1021.72 1021.56 1021.37 1021.11 1020.77 1020.32 1019.79 1019.18 1018.54 1017.91 1017.31 1016.77 1016.29 1015.85 1015.42 1014.96 1014.43 1013.80 1013.07 1012.24 1011.37 1010.50
1026.55 1026.40 1026.24 1026.08 1025.93 1025.79 1025.67 1025.57 1025.47 1025.37 1025.23 1025.05 1024.80 1024.48 1024.11 1023.69 1023.26 1022.84 1022.46 1022.13 1021.87 1021.64 1021.44 1021.23 1020.98 1020.65 1020.23 1019.72 1019.14 1018.52 1017.88 1017.28 1016.71 1016.21 1015.74 1015.30 1014.85 1014.37 1013.82 1013.19 1012.51 1011.79 1011.08
1027.76 1027.59 1027.39 1027.18 1026.98 1026.78 1026.59 1026.43 1026.26 1026.10 1025.90 1025.66 1025.36 1024.99 1024.56 1024.08 1023.59 1023.10 1022.65 1022.25 1021.91 1021.63 1021.38 1021.14 1020.87 1020.54 1020.14 1019.66 1019.11 1018.52 1017.90 1017.30 1016.72 1016.19 1015.70 1015.24 1014.78 1014.31 1013.81 1013.27 1012.69 1012.10 1011.53
1028.86 1028.67 1028.45 1028.20 1027.95 1027.69 1027.44 1027.21 1026.98 1026.76 1026.51 1026.23 1025.89 1025.49 1025.03 1024.52 1023.99 1023.46 1022.95 1022.50 1022.09 1021.75 1021.44 1021.16 1020.86 1020.53 1020.14 1019.68 1019.17 1018.60 1018.01 1017.42 1016.83 1016.28 1015.76 1015.26 1014.78 1014.30 1013.81 1013.31 1012.81 1012.31 1011.84
1029.80 1029.60 1029.36 1029.08 1028.78 1028.47 1028.17 1027.88 1027.60 1027.33 1027.04 1026.73 1026.37 1025.97 1025.51 1025.00 1024.46 1023.92 1023.38 1022.88 1022.43 1022.03 1021.67 1021.33 1021.00 1020.65 1020.27 1019.83 1019.34 1018.80 1018.23 1017.65 1017.06 1016.49 1015.93 1015.39 1014.87 1014.36 1013.86 1013.36 1012.88 1012.43 1012.02
1030.56 1030.35 1030.09 1029.79 1029.46 1029.12 1028.77 1028.43 1028.11 1027.80 1027.49 1027.17 1026.82 1026.43 1025.99 1025.51 1025.00 1024.46 1023.92 1023.40 1022.91 1022.47 1022.06 1021.67 1021.30 1020.93 1020.53 1020.09 1019.62 1019.10 1018.55 1017.97 1017.38 1016.79 1016.20 1015.63 1015.06 1014.51 1013.97 1013.46 1012.98 1012.53 1012.14
Thickness
5730 5729 5728 5727 5726 5725 5723 5722 5720 5719 5718 5717 5716 5716 5715 5714 5714 5714 5714 5714 5715 5716 5717 5718 5719 5721 5722 5723 5725 5726 5728 5730 5732 5734 5736 5738 5740 5742 5744 5744 5745 5745 5746
5729 5727 5726 5725 5723 5722 5721 5720 5718 5717 5715 5714 5713 5712 5711 5711 5710 5710 5710 5710 5711 5712 5713 5714 5715 5717 5718 5719 5721 5723 5725 5727 5729 5731 5733 5735 5737 5740 5741 5741 5742 5742 5743
5727 5726 5724 5723 5721 5720 5719 5717 5716 5714 5713 5711 5710 5709 5708 5707 5707 5706 5706 5706 5707 5707 5708 5709 5711 5712 5714 5715 5717 5719 5721 5723 5725 5727 5729 5731 5734 5737 5738 5738 5738 5739 5740
5725 5724 5722 5720 5719 5718 5716 5714 5713 5710 5708 5707 5705 5705 5704 5703 5703 5702 5702 5702 5702 5703 5704 5705 5706 5708 5709 5711 5713 5715 5717 5719 5721 5723 5725 5727 5730 5733 5734 5734 5734 5735 5736
5723 5722 5720 5718 5717 5716 5714 5712 5709 5707 5704 5703 5702 5701 5700 5700 5699 5699 5698 5698 5698 5698 5699 5700 5701 5703 5705 5707 5709 5711 5713 5715 5717 5719 5721 5723 5726 5728 5728 5729 5730 5731 5733
5720 5719 5717 5716 5715 5713 5711 5709 5706 5704 5702 5700 5700 5697 5696 5695 5695 5695 5694 5694 5694 5694 5695 5696 5697 5698 5700 5702 5705 5707 5710 5712 5713 5715 5716 5718 5720 5721 5722 5723 5725 5726 5728
5718 5717 5715 5713 5712 5710 5708 5706 5704 5701 5698 5697 5696 5692 5691 5692 5691 5690 5690 5690 5690 5690 5691 5692 5693 5694 5695 5697 5700 5703 5706 5709 5710 5710 5711 5713 5714 5715 5717 5718 5720 5721 5722
5715 5714 5713 5711 5709 5708 5705 5704 5702 5698 5695 5694 5692 5688 5684 5684 5686 5686 5686 5686 5686 5686 5687 5687 5688 5689 5691 5692 5694 5697 5702 5704 5704 5705 5706 5707 5708 5710 5711 5714 5716 5717 5717
5712 5711 5710 5708 5706 5705 5703 5701 5700 5697 5693 5691 5690 5687 5681 5677 5677 5680 5681 5681 5681 5682 5683 5684 5684 5685 5686 5687 5688 5691 5694 5695 5697 5699 5700 5701 5703 5704 5705 5709 5712 5712 5710
5709 5708 5707 5706 5704 5702 5701 5699 5697 5696 5693 5689 5687 5685 5683 5680 5675 5673 5676 5677 5678 5678 5679 5679 5680 5680 5681 5682 5683 5685 5687 5688 5690 5692 5694 5695 5696 5698 5699 5701 5704 5704 5703
5706 5705 5704 5703 5701 5700 5698 5697 5695 5693 5691 5688 5685 5683 5680 5677 5675 5672 5669 5670 5673 5674 5675 5675 5675 5676 5676 5677 5678 5679 5681 5682 5684 5685 5687 5688 5690 5691 5692 5694 5695 5695 5696
5703 5703 5702 5700 5699 5697 5695 5694 5692 5691 5688 5686 5684 5681 5679 5676 5673 5670 5666 5665 5665 5668 5671 5671 5672 5672 5672 5672 5673 5674 5676 5677 5678 5679 5680 5681 5682 5683 5685 5687 5688 5689 5690
5700 5700 5699 5698 5697 5695 5693 5691 5689 5687 5685 5683 5681 5679 5677 5675 5673 5670 5666 5663 5662 5663 5665 5667 5668 5668 5668 5668 5669 5670 5671 5672 5672 5673 5673 5674 5675 5676 5677 5679 5681 5682 5683
5699 5698 5697 5696 5694 5692 5690 5688 5686 5684 5682 5680 5679 5676 5674 5673 5671 5669 5666 5662 5659 5658 5659 5662 5663 5664 5664 5664 5664 5665 5667 5667 5667 5667 5667 5668 5669 5669 5671 5672 5674 5676 5677
5697 5696 5695 5693 5691 5689 5687 5685 5683 5680 5679 5677 5675 5673 5671 5670 5668 5667 5665 5662 5658 5654 5653 5656 5657 5659 5659 5660 5660 5661 5661 5661 5661 5661 5661 5662 5662 5663 5665 5666 5667 5669 5670
5696 5694 5692 5690 5687 5686 5684 5682 5679 5677 5675 5673 5671 5670 5668 5666 5665 5663 5661 5659 5657 5654 5650 5651 5652 5653 5655 5655 5655 5655 5655 5655 5655 5655 5655 5656 5656 5657 5658 5660 5660 5661 5662
5693 5691 5689 5687 5684 5682 5680 5678 5675 5673 5671 5669 5667 5666 5664 5663 5661 5659 5657 5655 5653 5650 5647 5647 5647 5649 5649 5650 5650 5650 5650 5650 5650 5650 5650 5650 5650 5651 5651 5652 5653 5653 5654
5691 5689 5687 5684 5681 5679 5676 5674 5671 5669 5666 5664 5663 5661 5659 5659 5657 5655 5653 5651 5649 5647 5644 5642 5643 5643 5644 5644 5644 5644 5644 5644 5644 5644 5644 5644 5644 5644 5644 5644 5645 5645 5646
5687 5685 5683 5680 5678 5675 5673 5670 5668 5665 5663 5661 5659 5657 5655 5654 5652 5650 5648 5646 5644 5643 5640 5637 5636 5636 5636 5637 5637 5637 5637 5637 5637 5637 5636 5636 5636 5636 5636 5636 5636 5636 5636
5684 5681 5679 5677 5675 5672 5669 5667 5664 5661 5659 5657 5655 5653 5651 5649 5648 5646 5644 5641 5639 5637 5634 5632 5630 5629 5629 5629 5628 5627 5628 5628 5628 5628 5628 5627 5627 5627 5627 5627 5627 5627 5627
5680 5677 5675 5673 5671 5668 5666 5663 5661 5658 5654 5652 5650 5649 5647 5646 5644 5642 5640 5637 5634 5631 5628 5625 5623 5622 5622 5621 5620 5619 5618 5618 5619 5619 5619 5618 5618 5617 5616 5616 5616 5616 5616
5675 5672 5670 5668 5666 5665 5663 5661 5657 5654 5651 5648 5645 5644 5643 5641 5640 5638 5636 5634 5631 5627 5623 5619 5617 5615 5615 5614 5613 5612 5609 5609 5609 5609 5608 5608 5607 5607 5606 5606 5605 5605 5605
5670 5667 5665 5663 5661 5660 5659 5656 5653 5649 5646 5643 5641 5639 5638 5636 5634 5632 5630 5628 5625 5623 5620 5616 5612 5610 5609 5608 5606 5605 5602 5600 5599 5599 5597 5599 5597 5596 5596 5595 5595 5594 5594
5665 5663 5660 5659 5657 5656 5654 5652 5648 5644 5641 5638 5636 5633 5631 5629 5628 5626 5623 5620 5617 5615 5613 5611 5608 5606 5604 5602 5600 5598 5595 5593 5591 5590 5587 5587 5587 5586 5587 5585 5583 5582 5581
5661 5658 5656 5653 5651 5650 5649 5647 5643 5638 5634 5632 5630 5628 5626 5624 5623 5621 5617 5612 5610 5608 5606 5604 5602 5599 5597 5594 5592 5588 5585 5582 5581 5581 5577 5575 5576 5575 5575 5574 5572 5570 5569
5657 5654 5651 5649 5647 5645 5644 5642 5638 5633 5628 5626 5624 5622 5620 5618 5616 5614 5609 5605 5601 5600 5598 5596 5594 5591 5588 5585 5582 5579 5576 5572 5569 5568 5567 5563 5562 5560 5563 5564 5561 5558 5556